Location: ????????
(60.4333°N, 46.4710°E)
Time: 04:10:28
(UTC+00:00)

Okean-O - Pass Details

Date: 25 November 2020
Orbit: 639 x 640 km, 98.2° (Epoch: 19 January)

Event Time Altitude Azimuth Distance (km) Brightness Sun altitude
Rises 14:02:56 0° 134° (SE) 2,943 5.8 -13.5°
Reaches altitude 10° 14:05:14 10° 127° (SE) 2,038 4.9 -13.8°
Maximum altitude 14:09:20 38° 59° (ENE) 985 3.1 -14.3°
Drops below altitude 10° 14:13:28 10° 352° (N) 2,050 5.1 -14.7°
Sets 14:15:47 0° 345° (NNW) 2,964 6.1 -15.0°
